Regional Weather Roundup
Issued by NWS Grand Forks, ND

Home | Current Version | Previous Version | Text Only | Print | Product List | Glossary Off
Versions: 1 2 3 4 5 6 7 8 9 10 11 12 13 14 15 16 17 18 19 20 21 22 23 24 25 26 27 28 29 30 31 32 33 34 35 36 37 38 39 40 41 42 43 44 45 46 47 48 49 50

000
ASUS43 KFGF 182010
RWRFGF
PRAIRIE TO PINES  WEATHER ROUNDUP
NATIONAL WEATHER SERVICE EASTERN NORTH DAKOTA/GRAND FORKS ND
200 PM CST THU DEC 18 2014

 **SATELLITE DATA USED TO AUGMENT SKY COVER AT AUTOMATED STATIONS**
 *****  WEATHER ACROSS EASTERN NORTH DAKOTA  *****

CITY           SKY/WX    TMP DP  RH WIND       PRES   REMARKS
GRAND FORKS    CLOUDY    18  13  80 S12       30.19F WCI   5
GRAND FRKS AFB CLOUDY    18  17  95 S12       30.18F WCI   5
DEVILS LAKE    CLOUDY    19   9  63 S12       30.07S WCI   7
FARGO          CLOUDY    19  13  77 SE12      30.20F WCI   7
WAHPETON ARPT  CLOUDY    19  14  79 SE8       30.21F WCI   9
$$

 ***** WEATHER ACROSS CENTRAL AND WESTERN NORTH DAKOTA  *****

CITY           SKY/WX    TMP DP  RH WIND       PRES   REMARKS
BISMARCK       CLOUDY    24  20  84 S6        30.04F WCI  17
MINOT          CLOUDY    21  17  84 S9        30.00F FOG     WCI  11
JAMESTOWN      CLOUDY    21  16  81 S9        30.09F WCI  11
MINOT AFB      CLOUDY    22  21  98 S8        30.00F WCI  12
GARRISON         N/A     23  19  85 S8        29.99F WCI  14
WILLISTON      CLOUDY    26  22  84 S3        29.96F
DICKINSON      CLOUDY    30  26  85 W8        29.92F WCI  22
HETTINGER      CLOUDY    31  27  85 SW7       29.96F WCI  24
$$

 *****  OTHER AIRPORT OBSERVATIONS IN OUR AREA  *****

CITY           SKY/WX    TMP DP  RH WIND       PRES   REMARKS
WALHALLA         N/A     18  18 100 S9        30.15S WCI   6
GRAFTON AIRPOR NOT AVBL
VALLEY CITY AR CLOUDY    19  19 100 S9        30.12F WCI   9
CANDO          CLOUDY    18  16  93 S9        30.07F WCI   6
CAVALIER APRT  CLOUDY    19  16  86 S9        30.16F FOG     WCI   9
GWINNER        CLOUDY    25  23  93 MISG      30.15F
SHEYENNE NWR     N/A     20  14  76 SE8       29.95  WCI  10
ROLLA          CLOUDY    16  16 100 S9        30.04F WCI   4
 ***** THE ABOVE OBSERVATIONS ARE NON NWS ARE NOT QUALITY
       CONTROLLED AND MAY MIS-REPORT RAIN FOR SNOW...
$$

  *****  WEATHER ACROSS NORTHERN MINNESOTA  *****

CITY           SKY/WX    TMP DP  RH WIND       PRES   REMARKS
FLAG ISLAND    SUNNY     16  10  79 S7        30.21F WCI   6
WARROAD        PTSUNNY   21  16  79 S8        30.20F WCI  12
ROSEAU         MOSUNNY   23  16  74 S10       30.19F WCI  12
HALLOCK        MOSUNNY   21  16  79 S16       30.19S WCI   7
THF RVR FALLS  PTSUNNY   19  14  79 S12       30.20S WCI   7
BAUDETTE       SUNNY     21  12  68 S12       30.20F WCI   9
WASKISH        FLURRIES  19  16  86 CALM      30.22F
CROOKSTON      CLOUDY    19  16  86 S14       30.21F WCI   6
STEPHEN NDAWN    N/A     19  16  86 S12         N/A  WCI   7
GREENBUSH NDAW   N/A     19  14  79 S12         N/A  WCI   7
$$
  *****  WEATHER ACROSS CENTRAL AND WEST MINNESOTA  *****

CITY           SKY/WX    TMP DP  RH WIND       PRES   REMARKS
FOSSTON        PTSUNNY   18  12  79 S9        30.20S WCI   6
BEMIDJI        FLURRIES  17  13  84 S8        30.21S WCI   6
PARK RAPIDS    CLOUDY    18  12  77 S9        30.20F WCI   7
ELBOW LAKE     CLOUDY    17  14  86 SE10      30.20F WCI   5
WADENA         CLOUDY    18  12  79 NW6       30.20F WCI   9
DETROIT LAKES  PTSUNNY   19  16  86 S8        30.20F WCI   9
MOORHEAD       CLOUDY    19  18  93 SE12      30.21S WCI   7
FERGUS FALLS   CLOUDY    18  12  79 SE12      30.24F WCI   5
MORRIS MN      PTSUNNY   19  16  86 SE10      30.20F WCI   8
STAPLES        FLURRIES  18  12  79 SE3       30.22F
$$
  *****  WEATHER ELSEWHERE ACROSS MINNESOTA  *****

CITY           SKY/WX    TMP DP  RH WIND       PRES   REMARKS
DULUTH         CLOUDY    25  18  74 SE9       30.21F WCI  15
INTRNTL FALLS  CLOUDY    19  13  77 VRB3      30.24F
ELY            CLOUDY    21  18  86 CALM      30.23S
CLOQUET        CLOUDY    25  19  80 SE3       30.22S
WHEATON        CLOUDY    18  12  79 SE14      30.22S WCI   4
BRAINERD       CLOUDY    20  15  81 S6        30.23F WCI  12
HIBBING        CLOUDY    22  17  81 CALM      30.22F
ALEXANDRIA     CLOUDY    18  12  77 S9        30.21F WCI   7
SAINT CLOUD    CLOUDY    21  14  74 SE6       30.25S HAZE    WCI  13
MINNEAPOLIS    FLURRIES  20  15  81 SE3       30.26F
$$

  *****  WEATHER ACROSS SOUTH DAKOTA  *****

CITY           SKY/WX    TMP DP  RH WIND       PRES   REMARKS
SIOUX FALLS    CLOUDY    25  21  85 S7        30.16F WCI  17
BROOKINGS      NOT AVBL
WATERTOWN      CLOUDY    23  19  85 S10       30.13F WCI  12
HURON          CLOUDY    25  21  85 S9        30.14F WCI  15
SISSETON       NOT AVBL
ABERDEEN       CLOUDY    24  20  84 S9        30.14F FOG     WCI  14
MITCHELL         N/A     27  23  85 S8        30.16S WCI  19
PIERRE         CLOUDY    28  24  85 SE7       30.07F WCI  21
MOBRIDGE       CLOUDY    27  24  89 S12       30.02F FOG     WCI  17
RAPID CITY     SUNNY     39  29  67 E6        29.96F
$$

  *****  SOME WEATHER IN NEARBY STATES *****

CITY           SKY/WX    TMP DP  RH WIND       PRES   REMARKS
GLASGOW MT     CLOUDY    30  25  81 N3        29.91F
GREAT FALLS MT CLOUDY    41  25  53 SW18G26   29.89F
CHEYENNE WY    SUNNY     41  12  30 W20       29.99F
SCOTTSBLUFF NE SUNNY     20  16  84 NW5       30.03F FOG     WCI  13
OMAHA NE       FLURRIES  31  25  78 SE6       30.22F
DES MOINES IA  FLURRIES  31  20  63 CALM      30.23F
DAVENPORT IA   PTSUNNY   25  16  68 NW5       30.25F WCI  19
CHICAGO IL     CLOUDY    28  18  66 NW3       30.21F
EAU CLAIRE WI  CLOUDY    23  18  81 SW3       30.25F
LA CROSSE WI   CLOUDY    26  18  71 CALM      30.26F
$$

  *****  SOME NATIONAL WEATHER *****

CITY           SKY/WX    TMP DP  RH WIND       PRES   REMARKS
LA GUARDIA NY  PTSUNNY   42  25  50 W15G25    29.94R
RALEIGH NC     PTSUNNY   50  21  32 NW5       30.09F
ATLANTA GA     PTSUNNY   54  30  40 W3        30.10F
NEW ORLEANS LA CLOUDY    68  54  60 S10       30.09F
OKLAHOMA CITY  CLOUDY    43  39  86 CALM      30.13F FOG
ALBUQUERQUE NM PTSUNNY   42  28  57 W3        30.10F
SALT LAKE CITY MOSUNNY   42  32  67 SE7       30.13F
LOS ANGELES CA DRIZZLE   56  49  77 SW7       30.18F
BOISE ID       CLOUDY    47  31  53 S12       30.10S
SEATTLE WA     LGT RAIN  47  41  80 SE6       29.88F
$$

*** WEATHER ACROSS MANITOBA...SASKATCHEWAN AND ONTARIO ***
                ***ONTARIO***

CITY           SKY/WX    TMP DP  RH WIND       PRES   REMARKS
GERALDTON      SUNNY     18   7  62 W3        30.26S
THUNDER BAY    NOT AVBL
SIOUX LOOKOUT  NOT AVBL
TORONTO        CLOUDY    30  25  80 W16       30.07R WCI  19
BIG TROUT LK   CLEAR      9   5  85 SW3       30.19S
PICKLE LAKE    MOSUNNY   16   3  57 SW5       30.23S WCI   9
DRYDEN         FLURRIES  14  12  92 S5        30.23F WCI   6
KENORA         PTSUNNY   18   9  68 S8        30.19F WCI   7
$$
                *** MANITOBA***

CITY           SKY/WX    TMP DP  RH WIND       PRES   REMARKS
BRANDON        NOT AVBL
DAUPHIN        SUNNY     14  12  92 CALM      30.05F
ISLAND LAKE    PTCLDY    14  10  85 S5        30.13F WCI   6
PILOT MOUND      N/A     18  14  86 S15         N/A  WCI   3
THE PAS        LGT SNOW  14  10  85 S8        30.00S WCI   3
THOMPSON       NOT AVBL
WINNIPEG       MOSUNNY   18  12  79 S12       30.18F WCI   5
LYNN LAKE      LGT SNOW  12  10  92 SW6       29.90S WCI   3
CHURCHILL      PTCLDY     1   0  92 SW5       30.01R WCI  -8
$$
                ***SASKATCHEWAN***

CITY           SKY/WX    TMP DP  RH WIND       PRES   REMARKS
ESTEVAN        FLURRIES  23  18  80 S8        29.95F WCI  14
KINDERSLEY     NOT AVBL
LLOYDMINSTER   FOG       18  16  93 W6        29.84S VSB 5/8 WCI   9
PRINCE ALBERT  NOT AVBL
REGINA         CLOUDY    25  23  93 S8        29.90F WCI  16
YORKTON        FLURRIES  19  16  86 S10       29.96F WCI   8
N. BATTLEFORD  CLOUDY    19  18  93 W9        29.88S WCI   9
LA RONGE       NOT AVBL
SASKATOON      CLOUDY    21  19  93 S7        29.88S FOG     WCI  13
SWIFT CURRENT  SUNNY     27  27 100 SW8       29.82F WCI  18
$$
NOTE: THESE ARE AUTOMATED STATIONS WITH LIMITED QUALITY CONTROL
      "FAIR" INDICATES FEW OR NO CLOUDS BELOW 12,000 FEET WITH NO
      SIGNIFICANT WEATHER AND/OR OBSTRUCTIONS TO VISIBILITY.
      SKY/WX - SKY CONDITION AND SIGNIFICANT WEATHER.
      TMP - AIR TEMPERATURE.    DP   - DEWPOINT TEMPERATURE.
      RH  - RELATIVE HUMIDITY.  PRES - PRESSURE.
      HX  - HEAT INDEX.         WCI  - WIND CHILL INDEX.
$


USA.gov is the U.S. government's official web portal to all federal, state and local government web resources and services.